When you browse on this site, cookies collect data to enhance your experience and personalize the content and advertising you see.
Visit our Privacy Policy to learn more. By continuing to use the site, you agree to this use of cookies and data.
  • In Austria
  • List of Countries
  • For 7 days
  • Water Temperature
  • Weather Map
  • News
  • Weather Widgets
  • user-avatar
    Login

    Hourly Weather Tezontepec de Aldama

    Today, 22 August, Thursday

    Time Temperature Precipitation Wind Pressure Humidity
    00:00 +14°C° 0.2 mm 0 mps 600 mmHg 97%
    01:00 +14°C° 0.2 mm 0 mps 599 mmHg 97%
    02:00 +14°C° 0.2 mm 0 mps 599 mmHg 96%
    03:00 +14°C° 0 mm 0 mps 599 mmHg 96%
    04:00 +14°C° 0 mm 0 mps 599 mmHg 95%
    05:00 +14°C° 0 mm 0 mps 599 mmHg 94%
    06:00 +15°C° 0 mm 0 mps 600 mmHg 88%
    07:00 +17°C° 0 mm 0 mps 601 mmHg 81%
    08:00 +18°C° 0 mm 0 mps 601 mmHg 75%
    09:00 +22°C° 0.7 mm 1 mps 601 mmHg 71%
    10:00 +23°C° 0.7 mm 1 mps 602 mmHg 66%
    11:00 +24°C° 0.7 mm 2 mps 602 mmHg 62%
    12:00 +24°C° 1.7 mm 2 mps 601 mmHg 62%
    13:00 +24°C° 1.7 mm 2 mps 601 mmHg 62%
    14:00 +24°C° 1.7 mm 3 mps 600 mmHg 62%
    15:00 +23°C° 1.7 mm 2 mps 600 mmHg 68%
    16:00 +21°C° 1.7 mm 2 mps 599 mmHg 74%
    17:00 +21°C° 1.7 mm 1 mps 599 mmHg 80%
    18:00 +20°C° 0.7 mm 1 mps 599 mmHg 82%
    19:00 +20°C° 0.7 mm 1 mps 600 mmHg 83%
    20:00 +19°C° 0.7 mm 1 mps 600 mmHg 85%
    21:00 +19°C° 0.1 mm 1 mps 600 mmHg 86%
    22:00 +18°C° 0.1 mm 1 mps 600 mmHg 86%
    23:00 +18°C° 0.1 mm 1 mps 600 mmHg 87%

    Tomorrow, 23 August, Friday

    Time Temperature Precipitation Wind Pressure Humidity
    00:00 +16°C° 0 mm 1 mps 599 mmHg 88%
    01:00 +16°C° 0 mm 1 mps 599 mmHg 89%
    02:00 +15°C° 0 mm 1 mps 599 mmHg 90%
    03:00 +15°C° 0 mm 1 mps 599 mmHg 90%
    04:00 +15°C° 0 mm 1 mps 598 mmHg 90%
    05:00 +14°C° 0 mm 1 mps 598 mmHg 90%
    06:00 +16°C° 0 mm 1 mps 599 mmHg 84%
    07:00 +19°C° 0 mm 1 mps 600 mmHg 77%
    08:00 +21°C° 0 mm 1 mps 601 mmHg 71%
    09:00 +22°C° 0 mm 1 mps 602 mmHg 65%
    10:00 +24°C° 0 mm 1 mps 602 mmHg 59%
    11:00 +25°C° 0 mm 2 mps 602 mmHg 53%
    12:00 +26°C° 0.3 mm 2 mps 602 mmHg 52%
    13:00 +26°C° 0.3 mm 3 mps 602 mmHg 51%
    14:00 +26°C° 0.3 mm 3 mps 601 mmHg 50%
    15:00 +25°C° 1.2 mm 3 mps 601 mmHg 58%
    16:00 +24°C° 1.2 mm 3 mps 600 mmHg 65%
    17:00 +21°C° 1.2 mm 3 mps 599 mmHg 73%
    18:00 +20°C° 1.6 mm 3 mps 599 mmHg 77%
    19:00 +18°C° 1.6 mm 3 mps 599 mmHg 82%
    20:00 +17°C° 1.6 mm 3 mps 599 mmHg 87%
    21:00 +16°C° 0 mm 3 mps 599 mmHg 87%
    22:00 +16°C° 0 mm 2 mps 599 mmHg 87%
    23:00 +16°C° 0 mm 1 mps 599 mmHg 87%

    Day after tomorrow, 24 August, Saturday

    Time Temperature Precipitation Wind Pressure Humidity
    00:00 +15°C° 0 mm 1 mps 599 mmHg 87%
    01:00 +15°C° 0 mm 1 mps 599 mmHg 86%
    02:00 +15°C° 0 mm 1 mps 599 mmHg 86%
    03:00 +15°C° 0 mm 1 mps 599 mmHg 85%
    04:00 +15°C° 0 mm 1 mps 599 mmHg 85%
    05:00 +15°C° 0 mm 1 mps 599 mmHg 85%
    06:00 +16°C° 0 mm 1 mps 600 mmHg 79%
    07:00 +19°C° 0 mm 1 mps 600 mmHg 74%
    08:00 +20°C° 0 mm 1 mps 601 mmHg 69%
    09:00 +22°C° 0 mm 1 mps 602 mmHg 64%
    10:00 +23°C° 0 mm 1 mps 602 mmHg 59%
    11:00 +25°C° 0 mm 1 mps 602 mmHg 54%
    12:00 +26°C° 0.2 mm 1 mps 602 mmHg 53%
    13:00 +26°C° 0.2 mm 2 mps 602 mmHg 51%
    14:00 +27°C° 0.2 mm 2 mps 601 mmHg 49%
    15:00 +26°C° 1.1 mm 2 mps 601 mmHg 57%
    16:00 +24°C° 1.1 mm 3 mps 600 mmHg 64%
    17:00 +22°C° 1.1 mm 3 mps 599 mmHg 71%
    18:00 +21°C° 2.3 mm 3 mps 600 mmHg 77%
    19:00 +19°C° 2.3 mm 2 mps 600 mmHg 83%
    20:00 +18°C° 2.3 mm 2 mps 600 mmHg 89%
    21:00 +17°C° 0.5 mm 2 mps 600 mmHg 89%
    22:00 +17°C° 0.5 mm 2 mps 600 mmHg 89%
    23:00 +17°C° 0.5 mm 2 mps 600 mmHg 89%

    25 August, Sunday

    Time Temperature Precipitation Wind Pressure Humidity
    00:00 +18°C° 0 mm 1 mps 599 mmHg 89%
    01:00 +18°C° 0 mm 1 mps 599 mmHg 88%
    02:00 +16°C° 0 mm 1 mps 598 mmHg 87%
    03:00 +16°C° 0 mm 1 mps 598 mmHg 87%
    04:00 +16°C° 0 mm 1 mps 598 mmHg 86%
    05:00 +15°C° 0 mm 1 mps 598 mmHg 86%
    06:00 +18°C° 0 mm 1 mps 599 mmHg 79%
    07:00 +20°C° 0 mm 1 mps 600 mmHg 72%
    08:00 +21°C° 0 mm 1 mps 601 mmHg 66%
    09:00 +23°C° 0.1 mm 1 mps 601 mmHg 61%
    10:00 +25°C° 0.1 mm 1 mps 601 mmHg 56%
    11:00 +24°C° 0.1 mm 0 mps 602 mmHg 51%
    12:00 +27°C° 0.4 mm 1 mps 601 mmHg 49%
    13:00 +27°C° 0.4 mm 1 mps 601 mmHg 48%
    14:00 +28°C° 0.4 mm 2 mps 600 mmHg 46%
    15:00 +26°C° 0.5 mm 2 mps 600 mmHg 53%
    16:00 +25°C° 0.5 mm 2 mps 599 mmHg 60%
    17:00 +24°C° 0.5 mm 3 mps 599 mmHg 67%
    18:00 +21°C° 1 mm 2 mps 599 mmHg 72%
    19:00 +20°C° 1 mm 2 mps 599 mmHg 78%
    20:00 +18°C° 1 mm 2 mps 599 mmHg 83%
    21:00 +19°C° 0.7 mm 1 mps 599 mmHg 84%
    22:00 +19°C° 0.7 mm 1 mps 599 mmHg 84%
    23:00 +18°C° 0.7 mm 1 mps 599 mmHg 85%

    26 August, Monday

    Time Temperature Precipitation Wind Pressure Humidity
    00:00 +18°C° 0.4 mm 1 mps 598 mmHg 86%
    01:00 +18°C° 0.4 mm 1 mps 598 mmHg 86%
    02:00 +18°C° 0.4 mm 1 mps 598 mmHg 87%
    03:00 +18°C° 0.2 mm 1 mps 598 mmHg 88%
    04:00 +16°C° 0.2 mm 1 mps 598 mmHg 89%
    05:00 +16°C° 0.2 mm 1 mps 598 mmHg 89%
    06:00 +18°C° 0 mm 1 mps 598 mmHg 83%
    07:00 +20°C° 0 mm 1 mps 599 mmHg 77%
    08:00 +21°C° 0 mm 1 mps 600 mmHg 72%
    09:00 +23°C° 0.1 mm 1 mps 600 mmHg 66%
    10:00 +22°C° 0.1 mm 0 mps 600 mmHg 60%
    11:00 +24°C° 0.1 mm 0 mps 601 mmHg 54%
    12:00 +26°C° 0.3 mm 1 mps 600 mmHg 52%
    13:00 +27°C° 0.3 mm 1 mps 600 mmHg 50%
    14:00 +27°C° 0.3 mm 2 mps 600 mmHg 48%
    15:00 +26°C° 1.2 mm 2 mps 599 mmHg 58%
    16:00 +24°C° 1.2 mm 2 mps 598 mmHg 67%
    17:00 +21°C° 1.2 mm 2 mps 598 mmHg 77%
    18:00 +19°C° 3.3 mm 2 mps 598 mmHg 81%
    19:00 +18°C° 3.3 mm 2 mps 598 mmHg 84%
    20:00 +16°C° 3.3 mm 2 mps 598 mmHg 88%
    21:00 +16°C° 0.1 mm 1 mps 598 mmHg 88%
    22:00 +16°C° 0.1 mm 1 mps 598 mmHg 87%
    23:00 +15°C° 0.1 mm 0 mps 599 mmHg 87%

    27 August, Tuesday

    Time Temperature Precipitation Wind Pressure Humidity
    00:00 +15°C° 0 mm 0 mps 598 mmHg 88%
    01:00 +15°C° 0 mm 0 mps 598 mmHg 89%
    02:00 +14°C° 0 mm 0 mps 597 mmHg 90%
    03:00 +14°C° 0 mm 0 mps 597 mmHg 90%
    04:00 +14°C° 0 mm 0 mps 597 mmHg 90%
    05:00 +15°C° 0 mm 1 mps 598 mmHg 90%
    06:00 +16°C° 0 mm 1 mps 598 mmHg 84%
    07:00 +19°C° 0 mm 1 mps 599 mmHg 78%
    08:00 +18°C° 0 mm 0 mps 600 mmHg 72%
    09:00 +22°C° 0 mm 1 mps 600 mmHg 65%
    10:00 +23°C° 0 mm 1 mps 600 mmHg 59%
    11:00 +25°C° 0 mm 2 mps 601 mmHg 53%
    12:00 +26°C° 0.2 mm 3 mps 601 mmHg 52%
    13:00 +26°C° 0.2 mm 4 mps 600 mmHg 50%
    14:00 +27°C° 0.2 mm 4 mps 600 mmHg 49%
    15:00 +25°C° 1 mm 4 mps 600 mmHg 57%
    16:00 +23°C° 1 mm 4 mps 599 mmHg 65%
    17:00 +21°C° 1 mm 3 mps 599 mmHg 72%
    18:00 +20°C° 1.7 mm 3 mps 599 mmHg 77%
    19:00 +18°C° 1.7 mm 3 mps 599 mmHg 82%
    20:00 +17°C° 1.7 mm 2 mps 599 mmHg 86%
    21:00 +17°C° 0.2 mm 2 mps 599 mmHg 85%
    22:00 +16°C° 0.2 mm 1 mps 600 mmHg 84%
    23:00 +16°C° 0.2 mm 1 mps 600 mmHg 83%
    Show more